Location: Unspecified
(0.0000°N, 0.0000°E)
Time: 03:57:49
(UTC+00:00)

Daily predictions for brighter satellites

Satellite Brightness Start Highest point End
(mag) Time Altitude Azimuth Time Altitude Azimuth Time Altitude Azimuth
Ariane H10+ 3.2 03:48:38 40° NNE 03:48:38 40° NNE 03:58:34 10° ENE
Cosmos 2233 Rocket 3.9 04:02:22 56° S 04:03:47 81° E 04:09:54 10° N
Delta 2 Rocket 4.2 04:04:35 67° NNE 04:04:53 68° NE 04:10:27 10° ESE
ARIANE 44L R/B 3.6 04:08:26 38° ENE 04:08:26 38° ENE 04:12:23 10° E
Delta 168 4.2 04:08:42 64° W 04:09:54 77° NNW 04:19:44 10° ENE
Intelsat 5-1 Rocket 3.0 04:10:53 50° SSE 04:10:53 50° SSE 04:18:20 10° ESE
ATLAS 5 CENTAUR R/B 1.9 04:17:47 57° SE 04:18:15 61° ESE 04:22:40 10° NNE
NOSS 3-3 (A) 4.5 04:24:50 37° NW 04:24:50 37° NW 04:29:37 10° N
NOSS 3-3 (C) 4.5 04:24:50 37° NW 04:24:50 37° NW 04:29:39 10° N
Palapa B4 Rocket 3.4 04:31:35 41° SSE 04:31:35 41° SSE 04:34:35 10° SE
USA 229 DEB 3.7 04:24:54 10° NNW 04:32:11 71° WSW 04:39:31 10° SSE
USA 229 3.7 04:25:01 10° NNW 04:32:18 72° WSW 04:39:37 10° SSE
SWIFT 2.6 04:36:21 48° SSW 04:36:59 54° SSE 04:41:06 10° E
Ariane H10-3 2.4 04:36:32 46° SSW 04:37:15 55° SSE 04:47:20 10° E
Delta 202 3.9 04:40:24 36° W 04:42:30 57° NNW 04:47:39 10° ENE
Lacrosse 4 Rocket 1.5 04:42:46 48° WSW 04:43:32 57° WNW 04:47:49 10° N
Cosmos 1408 4.3 04:43:11 10° NNE 04:46:27 34° E 04:49:44 10° SSE
Cosmos 2278 4.3 04:43:46 10° N 04:49:18 59° ENE 04:54:52 10° SSE
ARIANE 5 DEB (SYLDA) 3.1 04:52:21 53° SW 04:52:43 63° S 04:56:46 10° E
ERBS 2.2 04:52:57 10° NNW 04:56:17 89° WSW 04:59:41 10° SSE
Cosmos 1464 Rocket 3.9 04:52:28 10° S 04:58:39 82° W 05:04:54 10° N
GPS 2-14 Rocket1 2.7 04:58:59 24° WNW 05:01:24 88° NNE 05:05:36 10° ESE
ARIANE 5 R/B 2.4 05:02:26 23° SW 05:04:18 48° SSE 05:16:23 10° E
MTI 3.9 05:03:19 10° SSE 05:06:32 75° E 05:09:43 10° N
Radarsat Rocket 3.9 05:01:27 10° N 05:07:12 63° WNW 05:13:03 10° SSW
NOSS 3-1 (C) 4.2 04:58:54 10° NNW 05:07:23 88° WSW 05:15:54 10° SSE
Cosmos 468 4.5 05:03:16 10° SSW 05:08:36 76° WNW 05:13:52 10° N
Tsikada Rocket 4.3 05:03:09 10° NNW 05:09:07 43° W 05:15:10 10° SSW
Cosmos 2034 Rocket 4.1 05:03:23 10° S 05:09:44 87° E 05:15:58 10° N
SL-24 DEB 4.3 05:07:52 10° N 05:12:34 85° E 05:17:20 10° S
Cosmos 1346 Rocket 2.6 05:09:08 10° S 05:13:00 73° W 05:16:52 10° N
Okean-O 3.6 05:09:24 10° NNW 05:13:08 27° WNW 05:16:39 11° SW
Cosmos 1513 Rocket 4.4 05:09:31 10° SSW 05:15:38 66° W 05:21:38 10° N
BREEZE-M DEB (TANK) 4.5 05:11:54 10° SSW 05:15:42 74° ESE 05:33:07 10° NE
ERS-2 3.7 05:13:12 10° NNE 05:16:37 37° ESE 05:20:03 10° S
Meteor 2-10 Rocket 4.3 05:22:38 10° SSW 05:27:38 35° W 05:32:47 10° NNW
ASTRO E2 4.1 05:24:37 10° NW 05:28:21 37° NNE 05:32:04 10° ESE
Intelsat 5-2 Rocket 4.5 05:28:30 10° W 05:32:09 45° NNW 05:42:09 10° NE
Cosmos 1862 Rocket 4.3 05:29:42 10° SSW 05:33:38 31° W 05:37:34 10° NNW
Ariane H10+ 4.4 05:26:14 10° WSW 05:33:59 65° S 06:07:39 10° E
Sakura Rocket 4.0 05:28:47 10° WNW 05:36:29 70° SSW 05:41:56 10° SE
Cosmos 1733 Rocket 3.9 05:32:11 10° N 05:36:31 56° E 05:40:50 10° SSE
ARIANE 5 DEB (SYLDA 5A) 4.2 06:02:45 10° W 06:28:52 85° S 06:32:55 10° E
